カタログに戻る

DELTA 1 DEB

運用中SSO
NORAD 12177·DEBRIS·🇺🇸 United States

打ち上げ Mar 5, 1978 から Vandenberg Space Force Base

Loading…

次のパス (今後24時間)

TLE

最新Source: Space-Track

元期: Sep 14, 2026, 13:28 UTC

1 12177U 78026S   26257.56114883  .00000213  00000-0  17338-3 0  9990
2 12177  98.9498   0.7679 0151484 276.3982 150.4930 13.95082889312333

AllMySatでDELTA 1 DEBをリアルタイム追跡

Download on the App Store